Location: Castiglione Fibocchi
(43.5333°N, 11.7667°E)
Time: 18:54:40
(UTC+00:00)

Cosmos 2315 Rocket - Pass Details

Date: 15 August 2020
Orbit: 966 x 1002 km, 82.9° (Epoch: 20 September)

Event Time Altitude Azimuth Distance (km) Brightness Sun altitude
Rises 03:31:49 0° 199° (SSW) 3,691 6.6 -8.5°
Reaches altitude 10° 03:34:22 10° 203° (SSW) 2,751 5.9 -8.1°
Maximum altitude 03:40:35 57° 282° (WNW) 1,162 4.2 -7.1°
Drops below altitude 10° 03:46:53 10° 0° (N) 2,784 6.8 -6.0°
Sets 03:49:29 0° 5° (N) 3,738 7.5 -5.6°
